Forside
METAR-TAF:

METAR-TAF

Lufthavne :

Burlington Municipal Airport

Burlington, Wisconsin, USA

Breddekreds: 42-41-26N, længdekreds: 088-18-17W, højde: 237 m

Aktuelle vejr

Denne rapport blev lavet for 23 minutter siden, kl. 13:55 UTC
Vind stille
Temperatur 2°C
Fugtighed 87%
Tryk 1019 hPa
Sigt: 16.1 km
Brudte skyer i en højde af 900 ft
Overskyet i en højde af 1500 ft

METAR: KBUU 311355Z AUTO 00000KT 10SM BKN009 OVC015 02/00 A3008 RMK AO2 T00160000

Tid: 09:18 (14:18 UTC)


TAF: fraværende

Vejrobservationer og prognoser fra mere end 4000 lufthavne (METAR og TAF).

De gule og røde prikker repræsenterer de meteorologiske stationer.

Flyt musen over at se navnet på stationen.

Så klik over at se vejr observationer og prognoser.

At skifte det kort: Klik på de grønne knapper med et sort kors for at zoome ind; på den grønne knap med en bindestreg for at zoome ud; eller på de grønne pile for tilstødende kort.


METAR-TAF: